Location: Newark
(25.6108°S, 54.5803°W)
Time: 09:17:53
(UTC+00:00)

deb Explorer IX - Pass Details

Date: 05 November 2020
Orbit: 538 x 1104 km, 38.8° (Epoch: 23 November)

Event Time Altitude Azimuth Distance (km) Brightness Sun altitude
Rises 19:56:53 0° 245° (WSW) 3,630 ? 25.7°
Reaches altitude 10° 20:00:21 10° 230° (SW) 2,576 ? 24.9°
Maximum altitude 20:04:52 21° 182° (S) 1,770 ? 23.9°
Drops below altitude 10° 20:08:55 10° 133° (SE) 2,272 ? 23.0°
Sets 20:11:45 0° 116° (ESE) 3,088 ? 22.4°
